Location: Wellington
(41.3000°S, 174.7830°E)
Time: 16:06:30
(UTC+13:00)

SL-08 R/B - Visible Passes

Search period start: 14 October 2019 00:00
Search period end: 24 October 2019 00:00
Orbit: 946 x 994 km, 83.0° (Epoch: 13 October)

Date Brightness Start Highest point End Pass type
(mag) Time Alt. Az. Time Alt. Az. Time Alt. Az.
14 Oct 5.9 02:38:59 10° SSE 02:44:36 31° ESE 02:45:54 29° E visible
14 Oct 4.9 04:24:01 10° SSW 04:29:55 41° W 04:30:25 40° W visible
15 Oct 5.0 03:02:20 10° S 03:08:35 53° ESE 03:09:08 52° E visible
15 Oct 5.6 04:48:29 10° SSW 04:53:22 24° W 04:53:39 24° W visible
16 Oct 6.8 01:42:55 10° SSE 01:46:14 14° ESE 01:47:53 13° E visible
16 Oct 4.4 03:25:58 10° S 03:32:24 90° W 03:32:25 89° NNW visible
16 Oct 6.2 05:13:57 10° SW 05:16:40 13° WSW 05:16:56 13° W visible
17 Oct 6.2 02:05:21 10° SSE 02:10:29 25° ESE 02:11:13 24° E visible
17 Oct 4.7 03:49:53 10° SSW 03:55:44 52° W 03:55:44 52° W visible
18 Oct 5.4 02:28:30 10° S 02:34:33 42° ESE 02:34:33 42° ESE visible
18 Oct 5.4 04:14:08 10° SSW 04:19:05 30° WSW 04:19:05 30° WSW visible
19 Oct 7.0 01:10:22 10° SE 01:12:00 11° ESE 01:13:25 10° ESE visible
19 Oct 4.7 02:52:01 10° S 02:57:57 69° SE 02:57:57 69° SE visible
19 Oct 6.1 04:39:01 10° SW 04:42:28 17° WSW 04:42:28 17° WSW visible
20 Oct 6.5 01:31:49 10° SSE 01:36:21 20° ESE 01:36:49 20° ESE visible
20 Oct 4.7 03:15:49 10° SSW 03:21:21 61° SW 03:21:21 61° SW visible
21 Oct 5.8 01:54:45 10° S 02:00:15 33° ESE 02:00:15 33° ESE visible
21 Oct 5.3 03:39:55 10° SSW 03:44:46 36° WSW 03:44:46 36° WSW visible
22 Oct 5.1 02:18:08 10° S 02:23:42 54° SE 02:23:42 54° SE visible
22 Oct 5.9 04:04:27 10° SW 04:08:14 21° WSW 04:08:14 21° WSW visible
23 Oct 6.7 00:58:30 10° SSE 01:02:10 16° ESE 01:02:38 15° ESE visible
23 Oct 4.8 02:41:49 10° S 02:47:10 64° SSW 02:47:10 64° SSW visible
23 Oct 6.4 04:30:14 10° WSW 04:31:42 12° WSW 04:31:42 12° WSW visible
